Carmel Valley, CA (93924)

4:46 PM PDT on October 25, 2014 (GMT -0700)
Hastings-Finch Creek | Change Station
CLOSE
Current Station
Personal Weather Station
Location: Carmel Valley, CA
Elevation: 1578 ft
Nearby Weather Stations

Elev 1578 ft 36.38 °N, 121.57 °W | Updated 1 minute ago

Partly Cloudy
Partly Cloudy
67.8 °F
Feels Like 67.8 °F
N
3.1
Wind Variable Wind from SSW
Gusts 6.0 mph

Today
High -- | Low -- °F
--% Chance of Precip.
Yesterday
High -- | Low -- °F
Precip. -- in
7:23 AM 6:17 PM
Waxing Crescent, 5% visible
Pressure 30.13 in
Visibility 10.0 miles
Clouds Few 2900 ft
Dew Point 53 °F
Humidity 59%
Rainfall 0.13 in
Snow Depth Not available.
UV 2 out of 12
Pollen .10 out of 12
Air Quality Not available.
Flu Activity Sporadic
METAR KMRY 252254Z 23007KT 10SM FEW029 21/12 A3010 RMK AO2 SLP202 T02060122

More Conditions Fewer Conditions

Pressure 30.13 in
Visibility 10.0 miles
Clouds Few 2900 ft
Dew Point 53 °F
Humidity 59%
Rainfall 0.13 in
Snow Depth Not available.
UV 2 out of 12
Pollen .10 out of 12
Air Quality Not available.
Flu Activity Sporadic
METAR KMRY 252254Z 23007KT 10SM FEW029 21/12 A3010 RMK AO2 SLP202 T02060122

More Conditions Fewer Conditions

10-Day Weather Forecast

Almanac

Astronomy

Oct. 25, 2014 Rise Set
Actual Time 7:23 AM PDT 6:17 PM PDT
Civil Twilight 6:56 AM PDT 6:44 PM PDT
Nautical Twilight 6:26 AM PDT 7:14 PM PDT
Astronomical Twilight 5:56 AM PDT 7:44 PM PDT
Moon 9:05 AM PDT 7:47 PM PDT
Length of Visible Light 11h 47m
Length of Day
10h 54m
Tomorrow will be 2m 8s shorter.
Waxing Crescent, 5% of the Moon is Illuminated
Today
Waxing Crescent
Oct 30
First Quarter
Nov 6
Full
Nov 14
Last Quarter
Nov 22
New

Today's Extremes

State Highs State Lows

Community

WunderPhotos

Upload Photos

1,765,034 photos uploaded!

Nearby

Snow Depth

Station Depth Elevation
Leavitt Lake 0 in 9400 ft
Sonora Pass 0 in 8800 ft
Virginia Lakes Ridge 0 in 9200 ft
Leavitt Meadows 0 in 7200 ft
Blue Lakes 0 in 8000 ft

Earthquake Activity

City Distance Mag. Time & Date
Antioch, California 115 miles 2.7 6:42 AM PDT
2014-10-25
Coalinga, California 70 miles 2.5 11:01 PM PDT
2014-10-24
Solvang, California 160 miles 2.6 5:35 PM PDT
2014-10-22
Kettleman City, California 111 miles 2.5 9:08 AM PDT
2014-10-22
Minimum magnitude displayed is 2.5.

Coastal Water Temperatures

Place Temperature
Monterey, CA 63.0 °F
Port San Luis, CA 63.0 °F

Nearby Weather Stations